[[{"header":{"parameterUnit":"m.s-1","parameterCategory":2,"la1":30.2991,"la2":30.254,"lo1":-89.0895,"lo2":-89.0444,"dy":0.0017,"dx":0.0017,"nx":28,"ny":28,"refTime":"2024-05-29T09:00:00:Z","depth":"0","parameterNumber":2,"parameterNumberName":"U-component_of_CURRENTS"},"data":[0,0,0,0,0,0,0,0,0,0,0,0,0,0,0,0,0,0,0,0,0,0,0,0,0,0,0,0,0,0,0,0,0,0,0,0,0,0,0,0,0,0,0,0,0,0,0,0,0,0,0,0,0,0,0,0,0,0,-0.269,-0.2691,0,-0.2843,-0.2845,-0.2847,-0.2853,-0.2851,-0.2849,-0.2847,-0.288,-0.2882,-0.2885,0,0,0,0,0,0,0,0,0,0,0,0,0,-0.2541,-0.2543,-0.269,-0.2691,-0.2693,-0.2843,-0.2845,-0.2847,-0.2854,-0.2851,-0.2848,-0.2846,-0.2879,-0.2882,-0.2886,0,0,0,0,0,0,0,0,0,0,0,0,0,-0.2643,-0.2543,-0.2689,-0.2712,-0.2715,-0.2842,-0.2845,-0.2848,-0.2854,-0.2851,-0.2848,-0.2845,-0.2878,-0.2882,-0.2886,-0.2975,0,0,-0.2899,-0.2901,0,0,0,0,0,0,0,0,-0.2637,-0.2649,-0.2707,-0.2711,-0.2715,-0.2823,-0.2804,-0.2883,-0.2855,-0.2805,-0.2847,-0.2843,-0.285,-0.2857,-0.2898,-0.2976,-0.2978,-0.2899,-0.2902,-0.2904,-0.2905,0,0,0,0,0,0,0,-0.263,-0.2643,-0.2753,-0.2709,-0.2714,-0.2762,-0.2772,-0.2821,-0.2843,-0.2809,-0.2809,-0.2822,-0.2851,-0.2894,-0.2898,-0.2978,-0.2899,-0.2903,-0.2906,-0.2907,-0.306,-0.3062,0,0,0,0,0,0,-0.2602,-0.2636,-0.2748,-0.2758,-0.2664,-0.2766,-0.2778,-0.2794,-0.2845,-0.285,-0.2825,-0.2822,-0.2889,-0.2894,-0.2899,-0.2972,-0.2904,-0.2908,-0.291,-0.3059,-0.3061,-0.3062,0,0,0,0,0,0,-0.2598,-0.2611,-0.2742,-0.2698,-0.2717,-0.277,-0.279,-0.2798,-0.2838,-0.2858,-0.286,-0.2853,-0.2886,-0.2893,-0.2944,-0.2973,-0.2909,-0.2913,-0.3057,-0.3059,-0.3061,-0.3138,0,0,0,0,0,0,-0.2594,-0.2609,-0.2623,-0.2696,-0.2718,-0.2833,-0.2793,-0.2804,-0.285,-0.2848,-0.2884,-0.2884,-0.2884,-0.2938,-0.2948,-0.2978,-0.2917,-0.3055,-0.3058,-0.3061,-0.3133,-0.3142,-0.315,0,0,0,0,0,-0.2588,-0.2627,-0.2623,-0.2637,-0.2733,-0.2835,-0.2854,-0.2882,-0.2854,-0.29,-0.2905,-0.2883,-0.2961,-0.2944,-0.2955,-0.2987,-0.3054,-0.3057,-0.306,-0.313,-0.3141,-0.315,0,0,0,0,0,0,-0.2577,-0.2633,-0.263,-0.2684,-0.2756,-0.2835,-0.2882,-0.2894,-0.2942,-0.2929,-0.2924,-0.2929,-0.2978,-0.2979,-0.2958,-0.3036,-0.2997,-0.3003,-0.3045,-0.3056,-0.3064,-0.3054,-0.292,0,0,0,0,0,-0.2579,-0.2611,-0.2683,-0.2725,-0.2763,-0.2822,-0.2866,-0.2891,-0.2937,-0.2956,-0.2972,-0.2983,-0.301,-0.3026,-0.3055,-0.3118,-0.3073,-0.3137,-0.3145,-0.3152,-0.3151,-0.3117,-0.3121,-0.3073,-0.3073,-0.3073,0,0,-0.2579,-0.2618,-0.2633,-0.2724,-0.2777,-0.2865,-0.2843,-0.2924,-0.2981,-0.2952,-0.3024,-0.3024,-0.3033,-0.3091,-0.3112,-0.3091,-0.3142,-0.3157,-0.3163,-0.3157,-0.312,-0.3125,-0.3129,-0.3076,-0.3075,-0.3075,0,0,-0.2621,-0.2642,-0.2694,-0.2768,-0.2857,-0.2902,-0.2925,-0.3011,-0.3032,-0.3111,-0.3084,-0.3101,-0.3163,-0.3167,-0.3176,-0.3253,-0.3189,-0.3254,-0.3294,-0.3261,-0.3264,-0.3267,-0.3207,-0.3203,-0.3257,-0.3257,-0.3257,0,-0.2616,-0.2683,-0.2731,-0.2823,-0.2871,-0.2918,-0.2997,-0.3061,-0.3143,-0.3152,-0.3137,-0.3189,-0.3199,-0.3241,-0.326,-0.3273,-0.3226,-0.3256,-0.3271,-0.3272,-0.3273,-0.3211,-0.3206,-0.3261,-0.3261,-0.326,-0.326,0,-0.2712,-0.2769,-0.2816,-0.2924,-0.3001,-0.3074,-0.316,-0.3218,-0.3228,-0.326,-0.3298,-0.331,-0.3321,-0.3334,-0.3326,-0.3342,-0.3296,-0.3285,-0.3241,-0.3282,-0.3214,-0.3207,-0.3267,-0.3266,-0.3264,-0.3263,0,0,-0.2654,-0.2836,-0.2844,-0.289,-0.3044,-0.31,-0.3216,-0.3297,-0.3312,-0.3388,-0.3389,-0.3454,-0.342,-0.3426,-0.3408,-0.339,-0.336,-0.3341,-0.3337,-0.3274,-0.3257,-0.3217,-0.3205,-0.3342,-0.3341,-0.3341,-0.3203,0,-0.2688,-0.2829,-0.2925,-0.3038,-0.3105,-0.3197,-0.3281,-0.3365,-0.34,-0.3422,-0.3439,-0.3438,-0.3469,-0.3434,-0.3441,-0.3368,-0.3346,-0.3396,-0.3232,-0.3227,-0.3182,-0.3198,-0.3073,-0.2939,-0.3195,-0.3194,-0.3193,0,-0.2726,-0.2804,-0.2917,-0.3039,-0.3074,-0.3151,-0.3227,-0.3313,-0.339,-0.3408,-0.3444,-0.3438,-0.3447,-0.3434,-0.3385,-0.3409,-0.3345,-0.3294,-0.3287,-0.3218,-0.3176,-0.2942,-0.2916,-0.2895,-0.3182,-0.3183,-0.3184,0,-0.2604,-0.2778,-0.2835,-0.2893,-0.3065,-0.3102,-0.3174,-0.3279,-0.3316,-0.3365,-0.3359,-0.3402,-0.3359,-0.3342,-0.3298,-0.3315,-0.3203,-0.3207,-0.3116,-0.3111,-0.2957,-0.2939,-0.2884,-0.3153,-0.3154,-0.3154,-0.3154,0,-0.2574,-0.2615,-0.277,-0.2803,-0.2841,-0.2997,-0.303,-0.3113,-0.3197,-0.3211,-0.3308,-0.3296,-0.3325,-0.329,-0.3269,-0.3178,-0.3187,-0.3116,-0.3078,-0.298,-0.2968,-0.2905,-0.294,-0.3149,-0.315,-0.3151,-0.3152,0,-0.2437,-0.2552,-0.2612,-0.2755,-0.2788,-0.2805,-0.2941,-0.2959,-0.3064,-0.3075,-0.3079,-0.317,-0.3141,-0.3169,-0.3097,-0.3095,-0.2973,-0.2989,-0.2869,-0.2822,-0.274,-0.2785,-0.2666,-0.2592,-0.2859,-0.2857,-0.2856,0,-0.2386,-0.2404,-0.2521,-0.2537,-0.2594,-0.2656,-0.2692,-0.2849,-0.288,-0.2992,-0.2964,-0.2977,-0.2984,-0.2919,-0.2898,-0.285,-0.2861,-0.27,-0.2735,-0.2716,-0.2737,-0.2754,-0.2702,-0.2541,-0.2537,-0.2534,-0.2532,0,-0.2258,-0.229,-0.2333,-0.2366,-0.2397,-0.2445,-0.2513,-0.2536,-0.27,-0.2728,-0.2763,-0.2781,-0.2771,-0.2703,-0.2675,-0.2634,-0.2641,-0.2633,-0.2631,-0.2507,-0.2499,-0.2414,-0.2648,-0.2503,-0.2506,-0.2508,-0.251,-0.2511,-0.2128,-0.2118,-0.2167,-0.2184,-0.2213,-0.2224,-0.2218,-0.2309,-0.2346,-0.2398,-0.2516,-0.253,-0.2538,-0.25,-0.2465,-0.2365,-0.2428,-0.2302,-0.2357,-0.2375,-0.2317,-0.2497,-0.2319,-0.232,-0.2322,-0.2323,-0.2324,0,-0.1979,-0.1988,-0.199,-0.2013,-0.1977,-0.2049,-0.2082,-0.2064,-0.2058,-0.2162,-0.2202,-0.2273,-0.2219,-0.2257,-0.2203,-0.2119,-0.2059,-0.2071,-0.2054,-0.2014,-0.2156,-0.2158,-0.1915,-0.1915,-0.1915,-0.1915,-0.1915,-0.1915,-0.1904,-0.1858,-0.1868,-0.1773,-0.1778,-0.1696,-0.1683,-0.1672,-0.1723,-0.1767,-0.186,-0.2004,-0.2053,-0.222,-0.2117,-0.2014,-0.1966,-0.1889,-0.1936,-0.205,-0.2076,-0.2101,-0.2109,-0.186,-0.1861,-0.1683,-0.1682,-0.1681]},{"header":{"parameterUnit":"m.s-1","parameterCategory":2,"la1":30.2991,"la2":30.254,"lo1":-89.0895,"lo2":-89.0444,"dy":0.0017,"dx":0.0017,"nx":28,"ny":28,"refTime":"2024-05-29T09:00:00:Z","depth":"0","parameterNumber":3,"parameterNumberName":"V-component_of_CURRENTS"},"data":[0,0,0,0,0,0,0,0,0,0,0,0,0,0,0,0,0,0,0,0,0,0,0,0,0,0,0,0,0,0,0,0,0,0,0,0,0,0,0,0,0,0,0,0,0,0,0,0,0,0,0,0,0,0,0,0,0,0,-0.017,-0.017,0,-0.0133,-0.0132,-0.0132,-0.0077,-0.0077,-0.0076,-0.0076,0.0095,0.0099,0.0103,0,0,0,0,0,0,0,0,0,0,0,0,0,-0.0152,-0.0152,-0.017,-0.017,-0.017,-0.0133,-0.0132,-0.0131,-0.0077,-0.0077,-0.0076,-0.0075,0.0093,0.0098,0.0103,0,0,0,0,0,0,0,0,0,0,0,0,0,-0.0137,-0.0152,-0.017,-0.0142,-0.014,-0.0134,-0.0132,-0.0131,-0.0077,-0.0077,-0.0076,-0.0075,0.0092,0.0098,0.0104,0.0127,0,0,0.0123,0.0125,0,0,0,0,0,0,0,0,-0.0138,-0.0137,-0.0146,-0.0144,-0.0141,-0.0114,-0.0064,-0.004,-0.0077,-0.0095,-0.0076,-0.0075,0.0034,0.0044,0.0055,0.0135,0.0142,0.0123,0.0127,0.0129,0.0131,0,0,0,0,0,0,0,-0.0139,-0.0138,-0.015,-0.0146,-0.0144,-0.0118,-0.0115,-0.0059,-0.0029,-0.0094,-0.0091,-0.0096,0.0037,0.0049,0.006,0.0145,0.0123,0.0128,0.0132,0.0135,0.0291,0.0291,0,0,0,0,0,0,-0.0157,-0.0139,-0.0151,-0.0149,-0.0144,-0.012,-0.0116,-0.0119,-0.0032,-0.0021,-0.0096,-0.0093,0.0038,0.0053,0.0066,0.0114,0.0129,0.0135,0.0139,0.0291,0.0291,0.0292,0,0,0,0,0,0,-0.0157,-0.0158,-0.0153,-0.0148,-0.0146,-0.0122,-0.0125,-0.0119,-0.0109,-0.0037,-0.0021,-0.0094,0.0039,0.0058,0.0121,0.0121,0.0138,0.0143,0.029,0.0291,0.0291,0.0202,0,0,0,0,0,0,-0.0156,-0.0158,-0.0162,-0.0149,-0.0147,-0.016,-0.0126,-0.0119,-0.0115,-0.0111,-0.0029,-0.0013,0.0041,0.0112,0.0127,0.013,0.0148,0.0289,0.029,0.0291,0.0204,0.0199,0.0195,0,0,0,0,0,-0.0156,-0.0179,-0.0163,-0.0164,-0.0155,-0.0162,-0.0158,-0.0134,-0.0116,-0.012,-0.0053,-0.0016,0.0129,0.0117,0.0135,0.0139,0.0289,0.029,0.0291,0.0206,0.02,0.0195,0,0,0,0,0,0,-0.0184,-0.0176,-0.0157,-0.0178,-0.0172,-0.0155,-0.0165,-0.0143,-0.0097,-0.0088,-0.0009,0.0012,0.0067,0.0118,0.0103,0.0189,0.0215,0.022,0.0144,0.0139,0.0135,0.0113,0.0153,0,0,0,0,0,-0.0191,-0.0198,-0.0187,-0.0204,-0.0208,-0.0184,-0.0183,-0.0167,-0.0131,-0.0112,-0.0052,0.0019,0.0085,0.0122,0.0182,0.0229,0.0271,0.0246,0.0241,0.0237,0.0233,0.0292,0.0292,0.0295,0.0295,0.0295,0,0,-0.0209,-0.0205,-0.0209,-0.0209,-0.0204,-0.0216,-0.0181,-0.0193,-0.0183,-0.0097,-0.0062,0.0002,0.0093,0.0145,0.0175,0.0189,0.0257,0.0238,0.0234,0.0232,0.0293,0.0292,0.0292,0.0296,0.0296,0.0296,0,0,-0.0267,-0.0246,-0.0279,-0.0271,-0.0272,-0.0249,-0.0257,-0.0238,-0.021,-0.0171,-0.0102,-0.0038,0.0052,0.0119,0.0166,0.0175,0.0227,0.0193,0.0158,0.0214,0.0214,0.0214,0.0255,0.026,0.0195,0.0195,0.0195,0,-0.0291,-0.0321,-0.0291,-0.0318,-0.0317,-0.027,-0.0301,-0.0265,-0.022,-0.0193,-0.017,-0.0029,0.0041,0.0122,0.0126,0.0164,0.0197,0.0165,0.0206,0.0207,0.0209,0.0251,0.0257,0.019,0.0191,0.0191,0.0192,0,-0.0371,-0.0386,-0.041,-0.0413,-0.0404,-0.0425,-0.0376,-0.0352,-0.0308,-0.0263,-0.0186,-0.0087,-0.0003,0.0031,0.0084,0.0137,0.0155,0.0186,0.021,0.0203,0.0248,0.0256,0.0184,0.0186,0.0187,0.0188,0,0,-0.0448,-0.0465,-0.0469,-0.0482,-0.0453,-0.046,-0.0432,-0.0397,-0.0376,-0.0301,-0.0265,-0.0145,-0.0092,-0.0034,0.0044,0.0099,0.0139,0.0138,0.0143,0.0162,0.0249,0.0302,0.0316,0.017,0.0171,0.0172,0.0271,0,-0.0522,-0.0591,-0.0565,-0.0605,-0.0636,-0.0566,-0.0543,-0.0489,-0.0423,-0.037,-0.0251,-0.0184,-0.0113,-0.0075,-0.0008,0.0111,0.0158,0.0108,0.0269,0.0274,0.0308,0.0327,0.0369,0.0464,0.0279,0.028,0.0281,0,-0.0608,-0.0637,-0.0703,-0.0699,-0.0705,-0.0706,-0.0653,-0.0626,-0.052,-0.0468,-0.0374,-0.028,-0.0163,-0.0117,0.007,0.0033,0.0124,0.0209,0.0215,0.0302,0.0343,0.0448,0.0487,0.0661,0.0294,0.0293,0.0292,0,-0.0685,-0.0726,-0.0778,-0.0778,-0.0768,-0.0768,-0.0746,-0.0661,-0.063,-0.0528,-0.0493,-0.0342,-0.026,-0.0122,0.0068,0.0064,0.0261,0.0281,0.0412,0.0416,0.0505,0.0516,0.072,0.0387,0.0386,0.0386,0.0386,0,-0.0772,-0.0809,-0.082,-0.0851,-0.0892,-0.0846,-0.0854,-0.0808,-0.0727,-0.069,-0.0553,-0.0489,-0.026,-0.0108,0.0044,0.0264,0.0248,0.0411,0.0452,0.0475,0.0481,0.068,0.0748,0.039,0.0389,0.0388,0.0388,0,-0.0851,-0.0863,-0.0925,-0.0936,-0.094,-0.0966,-0.0939,-0.093,-0.0849,-0.0796,-0.0767,-0.0584,-0.0377,-0.0147,0.0098,0.0242,0.0551,0.0507,0.0514,0.0555,0.0838,0.0897,0.1124,0.1225,0.0668,0.067,0.0672,0,-0.0898,-0.0943,-0.0996,-0.1031,-0.1043,-0.1063,-0.1072,-0.1006,-0.0985,-0.0851,-0.0832,-0.0623,-0.0457,-0.0072,0.0226,0.0519,0.0643,0.0707,0.0715,0.0871,0.0968,0.0996,0.1066,0.0793,0.0795,0.0797,0.0799,0,-0.0975,-0.0996,-0.1043,-0.1125,-0.116,-0.1191,-0.1194,-0.1195,-0.1098,-0.1032,-0.0909,-0.0766,-0.0365,0.0015,0.041,0.0577,0.0847,0.0758,0.0933,0.1097,0.113,0.1241,0.0694,0.0818,0.0816,0.0814,0.0813,0.0813,-0.1016,-0.1071,-0.1134,-0.1204,-0.1253,-0.1298,-0.1319,-0.1287,-0.1249,-0.1119,-0.0979,-0.0726,-0.0159,0.0421,0.0634,0.1084,0.102,0.1197,0.1257,0.1272,0.1377,0.0861,0.1024,0.1023,0.1023,0.1022,0.1022,0,-0.1058,-0.1121,-0.1201,-0.1288,-0.135,-0.1353,-0.1378,-0.1367,-0.132,-0.1148,-0.0985,-0.0379,0.0184,0.0705,0.1359,0.158,0.1621,0.1668,0.173,0.178,0.1348,0.1361,0.159,0.159,0.159,0.1589,0.1589,0.1589,-0.1084,-0.1174,-0.1221,-0.1339,-0.1395,-0.1454,-0.1467,-0.1427,-0.1315,-0.1021,-0.0687,-0.0408,0.0358,0.1426,0.202,0.2055,0.2239,0.2192,0.2296,0.2009,0.1969,0.1932,0.1963,0.2314,0.2315,0.2711,0.2715,0.2718]}],[{"header":{"parameterUnit":"m.s-1","parameterCategory":2,"la1":30.2991,"la2":30.254,"lo1":-89.0895,"lo2":-89.0444,"dy":0.0017,"dx":0.0017,"nx":28,"ny":28,"refTime":"2024-05-29T09:00:00:Z","depth":"2","parameterNumber":2,"parameterNumberName":"U-component_of_CURRENTS"},"data":[0,0,0,0,0,0,0,0,0,0,0,0,0,0,0,0,0,0,0,0,0,0,0,0,0,0,0,0,0,0,0,0,0,0,0,0,0,0,0,0,0,0,0,0,0,0,0,0,0,0,0,0,0,0,0,0,0,0,-0.2403,-0.2404,0,-0.2473,-0.2474,-0.2474,-0.2479,-0.2478,-0.2478,-0.2477,-0.2562,-0.2565,-0.2568,0,0,0,0,0,0,0,0,0,0,0,0,0,-0.2267,-0.2269,-0.2403,-0.2404,-0.2405,-0.2473,-0.2474,-0.2475,-0.2479,-0.2478,-0.2478,-0.2477,-0.2561,-0.2565,-0.2568,0,0,0,0,0,0,0,0,0,0,0,0,0,-0.2327,-0.227,-0.2402,-0.2418,-0.242,-0.2473,-0.2474,-0.2475,-0.2479,-0.2478,-0.2477,-0.2477,-0.256,-0.2564,-0.2568,-0.2608,0,0,-0.2581,-0.2582,0,0,0,0,0,0,0,0,-0.2324,-0.2332,-0.2414,-0.2417,-0.242,-0.247,-0.2458,-0.2521,-0.2479,-0.2453,-0.2477,-0.2476,-0.2536,-0.2542,-0.2551,-0.2612,-0.2615,-0.2581,-0.2584,-0.2585,-0.2586,0,0,0,0,0,0,0,-0.2319,-0.2329,-0.2427,-0.2416,-0.2419,-0.242,-0.2428,-0.2469,-0.2495,-0.2455,-0.2456,-0.247,-0.2536,-0.2547,-0.2553,-0.2617,-0.2581,-0.2585,-0.2587,-0.2589,-0.2721,-0.2722,0,0,0,0,0,0,-0.232,-0.2325,-0.2425,-0.2429,-0.2373,-0.2424,-0.2432,-0.2451,-0.2494,-0.2501,-0.2471,-0.247,-0.2541,-0.2549,-0.2556,-0.2646,-0.2585,-0.2589,-0.2591,-0.272,-0.2722,-0.2723,0,0,0,0,0,0,-0.2317,-0.2328,-0.2422,-0.2381,-0.2393,-0.2427,-0.2449,-0.2453,-0.2476,-0.2507,-0.2513,-0.2491,-0.254,-0.2551,-0.2619,-0.2647,-0.2591,-0.2595,-0.2719,-0.2721,-0.2722,-0.2799,0,0,0,0,0,0,-0.2312,-0.2327,-0.2344,-0.2381,-0.2396,-0.2475,-0.245,-0.2455,-0.2487,-0.2487,-0.2526,-0.2532,-0.2541,-0.2613,-0.2623,-0.2652,-0.2598,-0.2718,-0.272,-0.2722,-0.2795,-0.2803,-0.281,0,0,0,0,0,-0.2307,-0.2341,-0.2344,-0.2357,-0.2418,-0.2477,-0.2485,-0.2503,-0.2489,-0.2516,-0.2542,-0.2531,-0.2631,-0.2618,-0.2629,-0.266,-0.2717,-0.2719,-0.2722,-0.2792,-0.2801,-0.281,0,0,0,0,0,0,-0.2295,-0.2347,-0.235,-0.2399,-0.2442,-0.248,-0.2509,-0.2514,-0.2554,-0.2557,-0.2567,-0.2577,-0.2634,-0.2641,-0.2626,-0.27,-0.2664,-0.2669,-0.2713,-0.2723,-0.273,-0.2724,-0.2601,0,0,0,0,0,-0.2301,-0.2333,-0.2384,-0.2421,-0.2449,-0.2478,-0.2503,-0.2521,-0.2559,-0.2574,-0.2598,-0.2622,-0.2652,-0.2684,-0.2706,-0.2772,-0.2735,-0.279,-0.2797,-0.2803,-0.2805,-0.2769,-0.2773,-0.2731,-0.2731,-0.2731,0,0,-0.2301,-0.2337,-0.2353,-0.242,-0.2452,-0.2512,-0.2491,-0.2546,-0.2596,-0.2581,-0.2651,-0.2652,-0.2671,-0.2731,-0.2756,-0.2747,-0.2798,-0.2807,-0.2812,-0.281,-0.2772,-0.2776,-0.2779,-0.2733,-0.2732,-0.2732,0,0,-0.2332,-0.236,-0.2403,-0.2448,-0.2513,-0.2544,-0.2564,-0.2616,-0.2641,-0.2715,-0.2698,-0.2725,-0.2787,-0.28,-0.2815,-0.2881,-0.2828,-0.2876,-0.293,-0.2896,-0.2899,-0.2901,-0.2865,-0.2863,-0.2893,-0.2893,-0.2893,0,-0.2329,-0.2389,-0.2425,-0.2488,-0.2523,-0.2562,-0.2619,-0.267,-0.2734,-0.2748,-0.2752,-0.2796,-0.2822,-0.2868,-0.2892,-0.2901,-0.286,-0.2899,-0.2905,-0.2906,-0.2907,-0.2869,-0.2866,-0.2897,-0.2896,-0.2896,-0.2895,0,-0.2398,-0.2446,-0.248,-0.2565,-0.2617,-0.2671,-0.2746,-0.2794,-0.2821,-0.2846,-0.2891,-0.2918,-0.2932,-0.2947,-0.2954,-0.2969,-0.2931,-0.2908,-0.2882,-0.2916,-0.2874,-0.2869,-0.2902,-0.2901,-0.29,-0.2899,0,0,-0.2361,-0.2497,-0.2502,-0.2539,-0.2653,-0.2692,-0.2796,-0.2867,-0.2891,-0.296,-0.2975,-0.3047,-0.3021,-0.3034,-0.3028,-0.3021,-0.3008,-0.2975,-0.2972,-0.2938,-0.2918,-0.2873,-0.2863,-0.2973,-0.2973,-0.2973,-0.2888,0,-0.2387,-0.2493,-0.2563,-0.2649,-0.27,-0.2772,-0.2849,-0.292,-0.2966,-0.2995,-0.3029,-0.3041,-0.3069,-0.3054,-0.3064,-0.3007,-0.2998,-0.3032,-0.2891,-0.2887,-0.2841,-0.2857,-0.2645,-0.2549,-0.2883,-0.2882,-0.2882,0,-0.2409,-0.2474,-0.2562,-0.2658,-0.2685,-0.2746,-0.2821,-0.2897,-0.297,-0.2999,-0.3035,-0.3039,-0.3069,-0.3059,-0.3029,-0.3041,-0.2992,-0.2954,-0.2948,-0.2874,-0.2833,-0.2568,-0.2527,-0.2873,-0.2874,-0.2874,-0.2875,0,-0.2322,-0.2454,-0.251,-0.2549,-0.2684,-0.2718,-0.2784,-0.2874,-0.2914,-0.2974,-0.2979,-0.3024,-0.3012,-0.2991,-0.297,-0.2976,-0.2897,-0.289,-0.2807,-0.2802,-0.2579,-0.2556,-0.2844,-0.2844,-0.2844,-0.2844,-0.2845,0,-0.2296,-0.2331,-0.2466,-0.2489,-0.2529,-0.2649,-0.269,-0.2758,-0.284,-0.2858,-0.2951,-0.2953,-0.2985,-0.2964,-0.2946,-0.2872,-0.2883,-0.2812,-0.2777,-0.2602,-0.2583,-0.283,-0.2829,-0.2841,-0.2842,-0.2842,-0.2843,0,-0.2181,-0.2282,-0.2333,-0.2458,-0.2486,-0.2506,-0.2623,-0.2646,-0.2747,-0.2769,-0.2781,-0.2872,-0.2856,-0.2882,-0.2825,-0.2815,-0.2757,-0.2719,-0.2522,-0.2468,-0.2689,-0.2694,-0.2614,-0.2612,-0.261,-0.2608,-0.2607,0,-0.2136,-0.2153,-0.226,-0.2276,-0.2325,-0.2387,-0.2419,-0.2561,-0.259,-0.2708,-0.2688,-0.2721,-0.2728,-0.268,-0.2641,-0.2593,-0.2673,-0.2369,-0.2365,-0.2691,-0.2666,-0.2673,-0.268,-0.2091,-0.2086,-0.2081,-0.2078,0,-0.202,-0.2054,-0.2092,-0.2128,-0.216,-0.2203,-0.2266,-0.2291,-0.244,-0.2478,-0.2522,-0.2546,-0.2537,-0.2414,-0.2379,-0.2325,-0.2375,-0.2279,-0.2624,-0.2209,-0.2198,-0.2174,-0.2197,-0.2038,-0.2042,-0.2045,-0.2047,-0.2048,-0.1904,-0.1898,-0.1945,-0.1964,-0.1995,-0.2006,-0.2,-0.2085,-0.2124,-0.2171,-0.2289,-0.2269,-0.2271,-0.2129,-0.2041,-0.1978,-0.2142,-0.2045,-0.2058,-0.2076,-0.2057,-0.2046,-0.1853,-0.1856,-0.1858,-0.186,-0.1862,0,-0.1767,-0.1779,-0.1783,-0.1808,-0.1778,-0.1848,-0.1876,-0.1855,-0.1854,-0.1926,-0.1964,-0.1809,-0.1747,-0.1765,-0.1613,-0.1604,-0.1577,-0.1536,-0.1488,-0.1528,-0.1563,-0.1519,-0.1171,-0.1169,-0.1167,-0.1166,0,0,-0.1698,-0.1657,-0.1666,-0.1584,-0.1594,-0.152,-0.1508,-0.1491,-0.151,-0.1485,-0.1487,-0.1645,-0.1703,-0.1429,-0.1371,-0.1246,-0.137,-0.1185,-0.1735,-0.1715,-0.1748,-0.185,-0.1826,0,0,0,0,0]},{"header":{"parameterUnit":"m.s-1","parameterCategory":2,"la1":30.2991,"la2":30.254,"lo1":-89.0895,"lo2":-89.0444,"dy":0.0017,"dx":0.0017,"nx":28,"ny":28,"refTime":"2024-05-29T09:00:00:Z","depth":"2","parameterNumber":3,"parameterNumberName":"V-component_of_CURRENTS"},"data":[0,0,0,0,0,0,0,0,0,0,0,0,0,0,0,0,0,0,0,0,0,0,0,0,0,0,0,0,0,0,0,0,0,0,0,0,0,0,0,0,0,0,0,0,0,0,0,0,0,0,0,0,0,0,0,0,0,0,-0.0125,-0.0125,0,-0.0099,-0.0098,-0.0097,-0.005,-0.005,-0.0049,-0.0049,0.0106,0.011,0.0114,0,0,0,0,0,0,0,0,0,0,0,0,0,-0.0103,-0.0104,-0.0125,-0.0125,-0.0126,-0.0099,-0.0098,-0.0097,-0.005,-0.0049,-0.0049,-0.0048,0.0105,0.0109,0.0114,0,0,0,0,0,0,0,0,0,0,0,0,0,-0.0094,-0.0104,-0.0125,-0.0103,-0.0101,-0.0099,-0.0098,-0.0097,-0.005,-0.0049,-0.0049,-0.0048,0.0104,0.0109,0.0115,0.0136,0,0,0.0132,0.0134,0,0,0,0,0,0,0,0,-0.0094,-0.0094,-0.0106,-0.0104,-0.0102,-0.0081,-0.0033,-0.0014,-0.005,-0.0064,-0.0049,-0.0048,0.0052,0.0062,0.007,0.0143,0.015,0.0132,0.0135,0.0138,0.0139,0,0,0,0,0,0,0,-0.0095,-0.0095,-0.011,-0.0106,-0.0104,-0.0083,-0.0081,-0.003,-0.0004,-0.0063,-0.0061,-0.0066,0.0054,0.0065,0.0075,0.0152,0.0132,0.0137,0.014,0.0143,0.0277,0.0277,0,0,0,0,0,0,-0.0111,-0.0096,-0.0111,-0.0109,-0.0102,-0.0084,-0.0081,-0.0085,-0.0007,0.0003,-0.0066,-0.0064,0.0055,0.0068,0.0081,0.0122,0.0138,0.0143,0.0146,0.0277,0.0277,0.0277,0,0,0,0,0,0,-0.0111,-0.0112,-0.0112,-0.0106,-0.0105,-0.0086,-0.009,-0.0085,-0.0076,-0.0012,0.0001,-0.0064,0.0056,0.0073,0.0127,0.0129,0.0146,0.0151,0.0276,0.0277,0.0277,0.0199,0,0,0,0,0,0,-0.011,-0.0112,-0.0116,-0.0107,-0.0106,-0.012,-0.0091,-0.0085,-0.0082,-0.0079,-0.0005,0.0009,0.0058,0.0118,0.0133,0.0136,0.0155,0.0276,0.0276,0.0277,0.0201,0.0197,0.0193,0,0,0,0,0,-0.0109,-0.0131,-0.0116,-0.0118,-0.0113,-0.0122,-0.0119,-0.0099,-0.0083,-0.0087,-0.003,0.0007,0.0131,0.0123,0.014,0.0145,0.0276,0.0276,0.0277,0.0203,0.0198,0.0193,0,0,0,0,0,0,-0.0134,-0.0128,-0.0112,-0.0132,-0.0128,-0.0116,-0.0126,-0.0106,-0.0067,-0.006,0.0011,0.003,0.0075,0.0122,0.0111,0.0186,0.021,0.0213,0.0148,0.0143,0.0139,0.0122,0.016,0,0,0,0,0,-0.0139,-0.0146,-0.0139,-0.0155,-0.0159,-0.014,-0.014,-0.0126,-0.0097,-0.008,-0.0028,0.0034,0.0089,0.0125,0.0174,0.0218,0.0262,0.0234,0.0229,0.0225,0.0223,0.0288,0.0288,0.0279,0.0279,0.0279,0,0,-0.0156,-0.0153,-0.0158,-0.0159,-0.0156,-0.0168,-0.0138,-0.015,-0.0143,-0.0067,-0.0038,0.0017,0.0096,0.014,0.0166,0.0182,0.025,0.0226,0.0222,0.0222,0.0288,0.0289,0.029,0.0279,0.0279,0.0279,0,0,-0.021,-0.0191,-0.0221,-0.0215,-0.0217,-0.0199,-0.0205,-0.0191,-0.0168,-0.0136,-0.0077,-0.002,0.0056,0.0116,0.0158,0.0163,0.0218,0.0177,0.015,0.0212,0.0213,0.0215,0.026,0.0266,0.0182,0.0182,0.0182,0,-0.0233,-0.026,-0.0233,-0.0257,-0.0258,-0.0217,-0.0246,-0.0216,-0.0179,-0.0155,-0.0136,-0.0015,0.0047,0.0121,0.0121,0.0153,0.0189,0.016,0.0205,0.0207,0.021,0.0257,0.0265,0.0178,0.0178,0.0179,0.0179,0,-0.0307,-0.032,-0.0342,-0.0345,-0.0338,-0.0358,-0.0317,-0.0296,-0.0259,-0.022,-0.0152,-0.0065,0.0009,0.0039,0.0083,0.0138,0.0156,0.0183,0.0212,0.0206,0.0256,0.0266,0.0173,0.0174,0.0175,0.0176,0,0,-0.038,-0.0393,-0.0397,-0.0408,-0.0383,-0.039,-0.0368,-0.0338,-0.0318,-0.0254,-0.0217,-0.0116,-0.0067,-0.0016,0.0053,0.0113,0.0161,0.0149,0.0154,0.0182,0.0285,0.0323,0.0338,0.0193,0.0194,0.0196,0.0307,0,-0.0449,-0.0512,-0.0486,-0.0524,-0.0553,-0.0488,-0.047,-0.0421,-0.0363,-0.0312,-0.0203,-0.0144,-0.0085,-0.005,0.0019,0.0132,0.0185,0.0128,0.0297,0.0301,0.0328,0.035,0.0307,0.0405,0.0316,0.0318,0.0319,0,-0.053,-0.0556,-0.0617,-0.061,-0.0616,-0.0618,-0.057,-0.0546,-0.0447,-0.0399,-0.031,-0.0224,-0.0111,-0.0072,0.0114,0.0073,0.0163,0.0247,0.0254,0.0325,0.0359,0.0402,0.0427,0.0336,0.0335,0.0333,0.0332,0,-0.0606,-0.064,-0.0689,-0.0688,-0.0677,-0.0677,-0.0659,-0.058,-0.0551,-0.0452,-0.0416,-0.027,-0.0192,-0.0054,0.0125,0.0117,0.0321,0.0338,0.0456,0.0459,0.0476,0.0479,0.045,0.045,0.0449,0.0449,0.0449,0,-0.0688,-0.0722,-0.0731,-0.076,-0.0798,-0.0753,-0.076,-0.0717,-0.0638,-0.06,-0.0471,-0.0406,-0.0186,-0.0036,0.011,0.0322,0.0316,0.0458,0.0498,0.0447,0.0446,0.0429,0.0426,0.0453,0.0452,0.0451,0.0451,0,-0.0765,-0.0774,-0.0832,-0.0841,-0.0846,-0.0871,-0.0844,-0.0834,-0.0755,-0.07,-0.067,-0.0492,-0.029,-0.0069,0.0175,0.0308,0.05,0.0565,0.0486,0.0515,0.0594,0.0585,0.0713,0.0716,0.0718,0.072,0.0721,0,-0.081,-0.0853,-0.0903,-0.0937,-0.0948,-0.0967,-0.0976,-0.091,-0.0887,-0.075,-0.0728,-0.0524,-0.0363,0.0012,0.0282,0.0561,0.0554,0.0668,0.0656,0.0599,0.0625,0.0612,0.0601,0.0641,0.0642,0.0642,0.0643,0,-0.0885,-0.0905,-0.0949,-0.103,-0.1064,-0.109,-0.1092,-0.109,-0.0991,-0.0925,-0.0797,-0.0656,-0.0281,0.0037,0.0405,0.0551,0.0626,0.0689,0.067,0.058,0.054,0.0562,0.0552,0.0648,0.0647,0.0647,0.0646,0.0646,-0.0925,-0.0978,-0.104,-0.1107,-0.1153,-0.1193,-0.1212,-0.1177,-0.1135,-0.1002,-0.0862,-0.0626,-0.0299,0.0225,0.0483,0.0714,0.0711,0.0762,0.0757,0.0751,0.0722,0.0689,0.0818,0.0818,0.0818,0.0819,0.0819,0,-0.0968,-0.1028,-0.1105,-0.1186,-0.1245,-0.1249,-0.1267,-0.125,-0.1201,-0.1039,-0.0878,-0.0522,-0.0139,0.0191,0.0576,0.0809,0.0776,0.0826,0.0743,0.0737,0.0732,0.0698,0.079,0.079,0.0791,0.0791,0,0,-0.0993,-0.1079,-0.1123,-0.1234,-0.1289,-0.1345,-0.1356,-0.1306,-0.12,-0.1044,-0.0854,-0.0564,-0.0144,0.0124,0.0419,0.0617,0.0603,0.0619,0.0617,0.0476,0.0468,0.0671,0.061,0,0,0,0,0]}],[{"header":{"parameterUnit":"m.s-1","parameterCategory":2,"la1":30.2991,"la2":30.254,"lo1":-89.0895,"lo2":-89.0444,"dy":0.0017,"dx":0.0017,"nx":28,"ny":28,"refTime":"2024-05-29T09:00:00:Z","depth":"4","parameterNumber":2,"parameterNumberName":"U-component_of_CURRENTS"},"data":[0,0,0,0,0,0,0,0,0,0,0,0,0,0,0,0,0,0,0,0,0,0,0,0,0,0,0,0,0,0,0,0,0,0,0,0,0,0,0,0,0,0,0,0,0,0,0,0,0,0,0,0,0,0,0,0,0,0,-0.1664,-0.1665,0,-0.1703,-0.1702,-0.1702,-0.1752,-0.1754,-0.1756,-0.1757,-0.1706,-0.1703,-0.17,0,0,0,0,0,0,0,0,0,0,0,0,0,-0.1511,-0.1513,-0.1664,-0.1665,-0.1667,-0.1703,-0.1702,-0.1702,-0.1752,-0.1754,-0.1756,-0.1758,-0.1707,-0.1704,-0.17,0,0,0,0,0,0,0,0,0,0,0,0,0,-0.1558,-0.1514,-0.1664,-0.1702,-0.1707,-0.1703,-0.1702,-0.1702,-0.1752,-0.1754,-0.1756,-0.1759,-0.1708,-0.1704,-0.17,-0.1624,0,0,-0.1686,-0.1685,0,0,0,0,0,0,0,0,-0.1555,-0.1562,-0.1696,-0.17,-0.1705,-0.1733,-0.163,-0.1674,-0.1751,-0.1725,-0.1757,-0.176,-0.1711,-0.1706,-0.1697,-0.1621,-0.1619,-0.1686,-0.1683,-0.1682,-0.168,0,0,0,0,0,0,0,-0.1552,-0.156,-0.167,-0.1697,-0.1703,-0.1676,-0.1686,-0.1638,-0.1695,-0.1728,-0.1734,-0.1751,-0.1712,-0.1701,-0.1696,-0.1618,-0.1686,-0.1682,-0.168,-0.1678,-0.1638,-0.164,0,0,0,0,0,0,-0.1569,-0.1558,-0.1669,-0.1672,-0.1645,-0.1678,-0.1688,-0.1714,-0.1698,-0.1701,-0.1749,-0.1754,-0.1707,-0.1701,-0.1694,-0.1742,-0.1682,-0.1678,-0.1675,-0.1637,-0.1638,-0.164,0,0,0,0,0,0,-0.1566,-0.1579,-0.1668,-0.1622,-0.1633,-0.168,-0.1707,-0.1714,-0.1748,-0.1717,-0.1717,-0.1783,-0.1709,-0.17,-0.1694,-0.1736,-0.1676,-0.1672,-0.1635,-0.1637,-0.1639,-0.1749,0,0,0,0,0,0,-0.1561,-0.1577,-0.1609,-0.1624,-0.1637,-0.1688,-0.1706,-0.1713,-0.1756,-0.1763,-0.1744,-0.174,-0.171,-0.1701,-0.169,-0.1728,-0.1668,-0.1633,-0.1636,-0.1639,-0.1743,-0.1754,-0.1764,0,0,0,0,0,-0.1556,-0.159,-0.161,-0.1624,-0.1676,-0.169,-0.1693,-0.1727,-0.1756,-0.1766,-0.1768,-0.1743,-0.1713,-0.1698,-0.1685,-0.1723,-0.1631,-0.1635,-0.1638,-0.1738,-0.1752,-0.1764,0,0,0,0,0,0,-0.1542,-0.16,-0.1621,-0.1674,-0.1693,-0.1703,-0.1728,-0.1745,-0.1753,-0.177,-0.1743,-0.1737,-0.1751,-0.1716,-0.1701,-0.1722,-0.1675,-0.1675,-0.1755,-0.1768,-0.1778,-0.1773,-0.1665,0,0,0,0,0,-0.1553,-0.1597,-0.1631,-0.1673,-0.1691,-0.1713,-0.173,-0.1749,-0.1758,-0.1767,-0.1753,-0.1746,-0.1743,-0.1743,-0.1717,-0.1712,-0.1693,-0.1735,-0.1746,-0.1755,-0.1743,-0.1764,-0.1776,-0.1651,-0.1651,-0.1651,0,0,-0.156,-0.1599,-0.1625,-0.1674,-0.1695,-0.1714,-0.1728,-0.1763,-0.1786,-0.1753,-0.1778,-0.177,-0.1749,-0.1759,-0.1763,-0.1743,-0.1784,-0.1759,-0.1767,-0.175,-0.1769,-0.1781,-0.1792,-0.1654,-0.1653,-0.1653,0,0,-0.1583,-0.1632,-0.1672,-0.1689,-0.1734,-0.1738,-0.1759,-0.178,-0.1806,-0.1815,-0.1818,-0.1841,-0.1811,-0.1821,-0.182,-0.1866,-0.1834,-0.1869,-0.1921,-0.1943,-0.1954,-0.1962,-0.1971,-0.1979,-0.1881,-0.1881,-0.1881,0,-0.159,-0.1648,-0.168,-0.1713,-0.1737,-0.1757,-0.1785,-0.18,-0.1815,-0.1836,-0.184,-0.1853,-0.1843,-0.188,-0.191,-0.1891,-0.189,-0.1879,-0.1958,-0.1966,-0.1973,-0.1979,-0.1987,-0.1887,-0.1886,-0.1886,-0.1885,0,-0.1626,-0.168,-0.1703,-0.1754,-0.1773,-0.1801,-0.1826,-0.1848,-0.1878,-0.1892,-0.1937,-0.1931,-0.1948,-0.1962,-0.1949,-0.2006,-0.1985,-0.1967,-0.1928,-0.1992,-0.1994,-0.2001,-0.1895,-0.1893,-0.1891,-0.189,0,0,-0.1611,-0.1713,-0.1722,-0.1758,-0.1801,-0.1816,-0.1857,-0.1895,-0.1943,-0.1956,-0.2015,-0.2032,-0.2047,-0.2047,-0.2051,-0.2074,-0.214,-0.205,-0.2049,-0.2061,-0.2185,-0.2038,-0.203,-0.2142,-0.2143,-0.2144,-0.2172,0,-0.1629,-0.1706,-0.1749,-0.1803,-0.1836,-0.1869,-0.1909,-0.1944,-0.198,-0.2031,-0.2057,-0.2099,-0.2078,-0.2111,-0.2134,-0.2137,-0.2159,-0.2133,-0.2116,-0.2115,-0.1979,-0.2033,-0.2149,-0.2177,-0.2178,-0.2179,-0.218,0,-0.1629,-0.1689,-0.1758,-0.1846,-0.1867,-0.19,-0.1969,-0.2008,-0.2076,-0.2113,-0.2158,-0.2174,-0.2225,-0.2197,-0.2229,-0.2217,-0.2207,-0.2199,-0.22,-0.2019,-0.1978,-0.2093,-0.2191,-0.219,-0.2189,-0.2188,-0.2188,0,-0.1573,-0.1682,-0.1745,-0.1769,-0.1868,-0.1914,-0.1964,-0.2033,-0.2072,-0.2167,-0.2203,-0.226,-0.2293,-0.2298,-0.2278,-0.2271,-0.2292,-0.2282,-0.2134,-0.2124,-0.2201,-0.219,-0.2294,-0.2294,-0.2294,-0.2294,-0.2294,0,-0.1541,-0.1591,-0.1736,-0.1759,-0.1828,-0.1912,-0.1985,-0.2039,-0.2133,-0.2165,-0.2245,-0.2266,-0.2319,-0.2328,-0.231,-0.223,-0.232,-0.2138,-0.212,-0.2248,-0.2243,-0.2206,-0.2195,-0.2295,-0.2295,-0.2294,-0.2294,0,-0.1444,-0.1548,-0.1618,-0.1756,-0.1796,-0.1841,-0.1964,-0.2006,-0.2121,-0.2167,-0.2196,-0.2283,-0.2292,-0.2311,-0.2322,-0.2247,-0.2205,-0.2152,-0.2286,-0.2276,-0.202,-0.2015,-0.2003,-0.1998,-0.1994,-0.1991,-0.1988,0,-0.1399,-0.1432,-0.1578,-0.1616,-0.168,-0.1774,-0.1818,-0.1959,-0.1993,-0.2137,-0.213,-0.2202,-0.2231,-0.2137,-0.2178,-0.2138,-0.2101,-0.2079,-0.2043,-0.2006,-0.199,-0.1992,-0.1993,-0.1981,-0.198,-0.1979,-0.1978,0,-0.1296,-0.1365,-0.1421,-0.1499,-0.1564,-0.1625,-0.171,-0.173,-0.1876,-0.1999,-0.2014,-0.2027,-0.2033,-0.2035,-0.2013,-0.198,-0.2099,-0.2034,-0.2043,-0.2009,-0.1978,-0.1968,-0.1973,-0.1963,-0.1965,-0.1966,-0.1967,0,-0.1209,-0.1224,-0.1309,-0.1359,-0.1432,-0.1454,-0.1529,-0.1584,-0.1647,-0.182,-0.1815,-0.1906,-0.2005,-0.195,-0.1929,-0.1888,-0.1858,-0.1801,-0.1821,-0.1838,-0.1766,-0.1703,-0.1583,0,0,0,0,0,-0.112,-0.1126,-0.1162,-0.1221,-0.1285,-0.1326,-0.1435,-0.1519,-0.1669,-0.1626,-0.1725,-0.1725,-0.1725,-0.1776,-0.1695,-0.1834,-0.1852,-0.1732,-0.1794,-0.1881,-0.1898,-0.1827,0,0,0,0,0,0,-0.1063,-0.1095,-0.1113,-0.1085,-0.1096,-0.1152,-0.1217,-0.1324,-0.1323,-0.1484,-0.1489,-0.1613,-0.1626,-0.1735,-0.1655,-0.1666,-0.1669,-0.1795,-0.179,-0.1872,-0.1887,-0.1901,-0.1833,0,0,0,0,0]},{"header":{"parameterUnit":"m.s-1","parameterCategory":2,"la1":30.2991,"la2":30.254,"lo1":-89.0895,"lo2":-89.0444,"dy":0.0017,"dx":0.0017,"nx":28,"ny":28,"refTime":"2024-05-29T09:00:00:Z","depth":"4","parameterNumber":3,"parameterNumberName":"V-component_of_CURRENTS"},"data":[0,0,0,0,0,0,0,0,0,0,0,0,0,0,0,0,0,0,0,0,0,0,0,0,0,0,0,0,0,0,0,0,0,0,0,0,0,0,0,0,0,0,0,0,0,0,0,0,0,0,0,0,0,0,0,0,0,0,-0.0074,-0.0074,0,-0.0068,-0.0067,-0.0067,-0.0038,-0.0038,-0.0038,-0.0037,0.0023,0.0024,0.0025,0,0,0,0,0,0,0,0,0,0,0,0,0,-0.0051,-0.0051,-0.0074,-0.0074,-0.0075,-0.0068,-0.0067,-0.0067,-0.0038,-0.0038,-0.0037,-0.0037,0.0022,0.0024,0.0025,0,0,0,0,0,0,0,0,0,0,0,0,0,-0.0051,-0.0051,-0.0074,-0.0062,-0.0061,-0.0068,-0.0067,-0.0067,-0.0038,-0.0038,-0.0037,-0.0037,0.0022,0.0024,0.0025,0.0025,0,0,0.0031,0.0032,0,0,0,0,0,0,0,0,-0.0051,-0.0052,-0.0063,-0.0063,-0.0062,-0.0056,-0.0037,-0.0034,-0.0039,-0.0044,-0.0037,-0.0037,-0.0001,0.0003,0.0006,0.0028,0.0031,0.0031,0.0032,0.0033,0.0034,0,0,0,0,0,0,0,-0.0051,-0.0052,-0.0068,-0.0064,-0.0063,-0.0053,-0.0052,-0.0037,-0.0022,-0.0043,-0.0042,-0.0046,0.0,0.0004,0.0008,0.0032,0.0031,0.0033,0.0034,0.0035,0.0069,0.0069,0,0,0,0,0,0,-0.006,-0.0052,-0.0069,-0.0068,-0.0059,-0.0054,-0.0053,-0.0056,-0.0024,-0.0019,-0.0047,-0.0045,0.0001,0.0006,0.001,0.0024,0.0033,0.0035,0.0036,0.0069,0.0069,0.0069,0,0,0,0,0,0,-0.0059,-0.0061,-0.0069,-0.0063,-0.0063,-0.0056,-0.0059,-0.0056,-0.0052,-0.0028,-0.0022,-0.0046,0.0002,0.0008,0.0024,0.0026,0.0036,0.0037,0.0069,0.0069,0.0069,0.0043,0,0,0,0,0,0,-0.0059,-0.0061,-0.0064,-0.0063,-0.0064,-0.0078,-0.0059,-0.0056,-0.0057,-0.0055,-0.0025,-0.0019,0.0003,0.0021,0.0026,0.0029,0.0039,0.007,0.0069,0.0069,0.0044,0.0042,0.004,0,0,0,0,0,-0.0058,-0.0073,-0.0064,-0.0066,-0.0068,-0.0079,-0.0079,-0.0069,-0.0058,-0.0062,-0.0038,-0.002,0.0022,0.0022,0.0028,0.0031,0.007,0.0069,0.0069,0.0045,0.0043,0.004,0,0,0,0,0,0,-0.0072,-0.0071,-0.0061,-0.0076,-0.0078,-0.0076,-0.0085,-0.0073,-0.0059,-0.0055,-0.0023,-0.0016,-0.0002,0.0016,0.0015,0.0039,0.0049,0.005,0.0029,0.0027,0.0025,0.0016,0.004,0,0,0,0,0,-0.0075,-0.008,-0.008,-0.0092,-0.0097,-0.0089,-0.0091,-0.0084,-0.0074,-0.0067,-0.0046,-0.0021,-0.0001,0.0014,0.0029,0.0044,0.0082,0.0049,0.0047,0.0045,0.0042,0.0112,0.0116,0.0067,0.0067,0.0067,0,0,-0.0086,-0.0086,-0.009,-0.0095,-0.0097,-0.011,-0.0089,-0.01,-0.0101,-0.0063,-0.0058,-0.0032,-0.0001,0.0014,0.0023,0.0032,0.0078,0.0045,0.0043,0.004,0.0112,0.0117,0.0121,0.0067,0.0067,0.0067,0,0,-0.0125,-0.0112,-0.0135,-0.0133,-0.0139,-0.013,-0.0135,-0.0132,-0.012,-0.0113,-0.0082,-0.0053,-0.0032,0.0001,0.0019,0.0015,0.0061,0.0016,0.0006,0.0074,0.0079,0.0084,0.0137,0.0147,0.0021,0.0021,0.0021,0,-0.014,-0.0162,-0.0144,-0.0165,-0.0168,-0.0142,-0.0166,-0.0152,-0.0139,-0.0126,-0.0118,-0.0061,-0.0035,0.0004,0.0,0.0012,0.0052,0.0014,0.0073,0.0079,0.0084,0.0138,0.0149,0.002,0.002,0.002,0.002,0,-0.0194,-0.0207,-0.0224,-0.0232,-0.0229,-0.0247,-0.0225,-0.0216,-0.0196,-0.0173,-0.0136,-0.0091,-0.0054,-0.0038,-0.0022,0.0027,0.0043,0.0059,0.0082,0.0088,0.0143,0.0156,0.0018,0.0019,0.0019,0.0019,0,0,-0.0243,-0.026,-0.0265,-0.0277,-0.0263,-0.0273,-0.0264,-0.0249,-0.0239,-0.0201,-0.0176,-0.0128,-0.0091,-0.0069,-0.0029,0.0031,0.0102,0.0055,0.0059,0.0111,0.0246,0.0224,0.0236,0.0133,0.0135,0.0137,0.0269,0,-0.0295,-0.0347,-0.0331,-0.0366,-0.039,-0.0348,-0.0343,-0.0314,-0.0277,-0.0243,-0.0169,-0.0136,-0.0105,-0.0083,-0.0017,0.0072,0.0132,0.0064,0.0229,0.0234,0.0217,0.0249,0.0143,0.0279,0.0281,0.0283,0.0285,0,-0.0353,-0.0377,-0.043,-0.0432,-0.0438,-0.0448,-0.042,-0.041,-0.034,-0.0307,-0.0241,-0.0181,-0.0091,-0.0068,0.0101,0.0057,0.014,0.0214,0.0222,0.0217,0.0235,0.0272,0.0308,0.0306,0.0304,0.0303,0.0301,0,-0.0405,-0.044,-0.0483,-0.0486,-0.0488,-0.0496,-0.0489,-0.0436,-0.0419,-0.0343,-0.0314,-0.0196,-0.0136,-0.0005,0.0138,0.0126,0.0328,0.0336,0.0399,0.0398,0.0389,0.0383,0.0454,0.0454,0.0454,0.0453,0.0453,0,-0.0458,-0.0492,-0.0517,-0.0543,-0.0584,-0.0555,-0.0571,-0.0543,-0.0484,-0.0455,-0.0356,-0.0299,-0.0117,0.0018,0.0144,0.031,0.034,0.0403,0.0436,0.0374,0.0364,0.0398,0.039,0.0458,0.0457,0.0456,0.0455,0,-0.0504,-0.0524,-0.0579,-0.0605,-0.0618,-0.0646,-0.0641,-0.0636,-0.0578,-0.0532,-0.0507,-0.0359,-0.0184,0.0,0.0224,0.031,0.0474,0.0521,0.0439,0.0464,0.0497,0.0486,0.0611,0.0611,0.0611,0.0612,0.0612,0,-0.0529,-0.0567,-0.0636,-0.0674,-0.0694,-0.0725,-0.0741,-0.0698,-0.0678,-0.0565,-0.0542,-0.0371,-0.0257,0.0048,0.023,0.0485,0.0506,0.0582,0.054,0.0496,0.0516,0.0504,0.0493,0.0613,0.0613,0.0613,0.0613,0,-0.0569,-0.0603,-0.0646,-0.0735,-0.0779,-0.0813,-0.0826,-0.0817,-0.0742,-0.0693,-0.0553,-0.0383,-0.0187,0.0043,0.024,0.0416,0.0532,0.0587,0.0587,0.0548,0.05,0.0517,0.0505,0.0614,0.0614,0.0614,0.0614,0,-0.0592,-0.0637,-0.0705,-0.0771,-0.0836,-0.0871,-0.0876,-0.083,-0.0796,-0.066,-0.0615,-0.039,-0.0251,0.0008,0.0192,0.0364,0.0397,0.0431,0.0439,0.044,0.0342,0.0254,0.0328,0,0,0,0,0,-0.0601,-0.0655,-0.073,-0.0805,-0.0867,-0.0901,-0.0912,-0.0894,-0.0827,-0.0738,-0.0667,-0.0479,-0.0184,-0.0055,0.0114,0.0181,0.0411,0.038,0.045,0.0621,0.062,0.053,0,0,0,0,0,0,-0.0611,-0.0688,-0.073,-0.0808,-0.0861,-0.0919,-0.093,-0.089,-0.0825,-0.0737,-0.058,-0.0465,-0.0182,-0.0282,0.0109,0.0164,0.0223,0.0529,0.0532,0.0622,0.0621,0.062,0.0527,0,0,0,0,0]}]]